Portada
METAR-TAF:

METAR-TAF

Aeroports :

Tela, Hondures

latitud: 15-43N, longitud: 087-29W, altitud: 3 m

Observació

L'informe es va fer fa 11 minuts, a les 18:00 UTC
Vent 6 kt del Nord-Est
Temperatura 30°C
Humitat 75%
Pressió 1013 hPa
Visibilitat 10 km o més
Núvols disperses a una alçada de 2800 ft, Cumulus congestus.
Escasses núvols a una alçada de 3200 ft, Cumulonimbus.

METAR: MHTE 011800Z 04006KT 9999 SCT028TCU FEW032CB 30/25 Q1013

Hora: 12:11 (18:11 UTC)


TAF: manca

Observacions i pronòstics meteorològics de més de 4000 aeroports (METAR i TAF).

Les estacions disponibles són els punts grocs i vermells al mapa.

Posi el ratolí al punt desitjat per veure el nom de l'estació.

Feu clic per veure les observacions i els pronòstics meteorològics.

Per canviar el mapa: feu clic els botons verds amb una creu de color negre per apropar; al botó verd amb un guió per allunyar la imatge; o en les fletxes verdes per a mapes adjacents.


METAR-TAF: